Time,TemperatureF,DewpointF,PressureIn,WindDirection,WindDirectionDegrees,WindSpeedMPH,WindSpeedGustMPH,Humidity,HourlyPrecipIn,Conditions,Clouds,dailyrainin,SoftwareType,DateUTC
2013-07-29 00:13:00,58.1,54.0,30.12,West,279,0.0,0.0,86,0.00,,,0.00,weatherlink.com 1.10,2013-07-29 05:13:00,
2013-07-29 00:28:00,57.3,54.0,30.12,West,278,0.0,0.0,88,0.00,,,0.00,weatherlink.com 1.10,2013-07-29 05:28:00,
2013-07-29 00:43:00,57.2,54.0,30.12,West,279,0.0,0.0,89,0.00,,,0.00,weatherlink.com 1.10,2013-07-29 05:43:00,
2013-07-29 00:58:00,57.4,54.0,30.12,West,279,0.0,1.0,89,0.00,,,0.00,weatherlink.com 1.10,2013-07-29 05:58:00,
2013-07-29 01:13:00,57.3,55.0,30.13,West,279,0.0,4.0,90,0.00,,,0.00,weatherlink.com 1.10,2013-07-29 06:13:00,
2013-07-29 01:29:00,56.9,54.0,30.13,West,279,0.0,0.0,90,0.00,,,0.00,weatherlink.com 1.10,2013-07-29 06:29:00,
2013-07-29 01:44:00,56.7,54.0,30.13,West,279,0.0,0.0,90,0.00,,,0.00,weatherlink.com 1.10,2013-07-29 06:44:00,
2013-07-29 01:59:00,56.3,54.0,30.13,West,279,0.0,0.0,91,0.00,,,0.00,weatherlink.com 1.10,2013-07-29 06:59:00,
2013-07-29 02:14:00,56.1,54.0,30.13,West,279,0.0,0.0,92,0.00,,,0.00,weatherlink.com 1.10,2013-07-29 07:14:00,
2013-07-29 02:29:00,55.6,53.0,30.13,West,279,0.0,6.0,91,0.00,,,0.00,weatherlink.com 1.10,2013-07-29 07:29:00,
2013-07-29 02:44:00,55.7,54.0,30.14,West,278,0.0,6.0,92,0.00,,,0.00,weatherlink.com 1.10,2013-07-29 07:44:00,
2013-07-29 02:59:00,55.6,53.0,30.14,West,278,0.0,0.0,92,0.00,,,0.00,weatherlink.com 1.10,2013-07-29 07:59:00,
2013-07-29 03:29:00,55.3,53.0,30.14,SSW,192,0.0,4.0,92,0.00,,,0.00,weatherlink.com 1.10,2013-07-29 08:29:00,
2013-07-29 03:44:00,55.0,53.0,30.14,SSW,192,0.0,0.0,93,0.00,,,0.00,weatherlink.com 1.10,2013-07-29 08:44:00,
2013-07-29 03:59:00,55.0,53.0,30.14,SSW,192,0.0,6.0,93,0.00,,,0.00,weatherlink.com 1.10,2013-07-29 08:59:00,
2013-07-29 04:14:00,54.4,53.0,30.14,SSW,200,0.0,7.0,93,0.00,,,0.00,weatherlink.com 1.10,2013-07-29 09:14:00,
2013-07-29 04:29:00,54.3,52.0,30.15,SSW,198,0.0,5.0,93,0.00,,,0.00,weatherlink.com 1.10,2013-07-29 09:29:00,
2013-07-29 04:44:00,54.0,52.0,30.15,SSW,198,3.0,5.0,94,0.00,,,0.00,weatherlink.com 1.10,2013-07-29 09:44:00,
2013-07-29 04:59:00,53.8,52.0,30.16,SSW,198,0.0,5.0,94,0.00,,,0.00,weatherlink.com 1.10,2013-07-29 09:59:00,
2013-07-29 05:14:00,53.9,53.0,30.16,SSW,198,0.0,2.0,95,0.00,,,0.00,weatherlink.com 1.10,2013-07-29 10:14:00,
2013-07-29 05:44:00,53.3,52.0,30.17,SSW,198,0.0,0.0,94,0.00,,,0.00,weatherlink.com 1.10,2013-07-29 10:44:00,
2013-07-29 05:59:00,53.1,52.0,30.17,SSW,198,0.0,0.0,95,0.00,,,0.00,weatherlink.com 1.10,2013-07-29 10:59:00,
2013-07-29 06:29:00,54.1,53.0,30.18,SSW,198,0.0,2.0,95,0.00,,,0.00,weatherlink.com 1.10,2013-07-29 11:29:00,
2013-07-29 06:44:00,54.5,53.0,30.18,SSW,198,0.0,0.0,95,0.00,,,0.00,weatherlink.com 1.10,2013-07-29 11:44:00,
2013-07-29 06:59:00,54.8,53.0,30.18,SSW,198,0.0,0.0,95,0.00,,,0.00,weatherlink.com 1.10,2013-07-29 11:59:00,
2013-07-29 07:14:00,54.8,53.0,30.19,SSW,198,0.0,0.0,95,0.00,,,0.00,weatherlink.com 1.10,2013-07-29 12:14:00,
2013-07-29 07:29:00,54.8,53.0,30.18,SSW,198,0.0,0.0,95,0.00,,,0.00,weatherlink.com 1.10,2013-07-29 12:29:00,
2013-07-29 07:59:00,55.7,55.0,30.20,SSW,198,0.0,4.0,96,0.00,,,0.00,weatherlink.com 1.10,2013-07-29 12:59:00,
2013-07-29 08:29:00,56.5,55.0,30.20,SSW,198,0.0,0.0,96,0.00,,,0.00,weatherlink.com 1.10,2013-07-29 13:29:00,
2013-07-29 08:44:00,57.1,56.0,30.21,SSW,198,0.0,0.0,96,0.00,,,0.00,weatherlink.com 1.10,2013-07-29 13:44:00,
2013-07-29 08:59:00,58.7,58.0,30.20,SSW,198,0.0,2.0,96,0.00,,,0.00,weatherlink.com 1.10,2013-07-29 13:59:00,
2013-07-29 09:29:00,62.8,58.0,30.20,SSW,198,0.0,0.0,85,0.00,,,0.00,weatherlink.com 1.10,2013-07-29 14:29:00,
2013-07-29 09:45:00,65.7,58.0,30.20,SSW,198,0.0,1.0,76,0.00,,,0.00,weatherlink.com 1.10,2013-07-29 14:45:00,
2013-07-29 10:00:00,66.9,57.0,30.20,SSW,198,0.0,2.0,71,0.00,,,0.00,weatherlink.com 1.10,2013-07-29 15:00:00,
2013-07-29 10:15:00,68.1,57.0,30.20,SSW,198,0.0,4.0,67,0.00,,,0.00,weatherlink.com 1.10,2013-07-29 15:15:00,
2013-07-29 10:30:00,68.9,57.0,30.20,SSW,198,0.0,2.0,65,0.00,,,0.00,weatherlink.com 1.10,2013-07-29 15:30:00,
2013-07-29 10:45:00,69.1,55.0,30.20,SSW,198,2.0,7.0,62,0.00,,,0.00,weatherlink.com 1.10,2013-07-29 15:45:00,
2013-07-29 11:00:00,69.8,51.0,30.21,SSW,202,0.0,6.0,51,0.00,,,0.00,weatherlink.com 1.10,2013-07-29 16:00:00,
2013-07-29 11:15:00,71.0,53.0,30.20,SSW,203,0.0,5.0,54,0.00,,,0.00,weatherlink.com 1.10,2013-07-29 16:15:00,
2013-07-29 11:30:00,70.4,53.0,30.20,SW,234,0.0,7.0,54,0.00,,,0.00,weatherlink.com 1.10,2013-07-29 16:30:00,
2013-07-29 11:45:00,70.7,51.0,30.20,WSW,243,5.0,8.0,50,0.00,,,0.00,weatherlink.com 1.10,2013-07-29 16:45:00,
2013-07-29 12:00:00,70.6,51.0,30.20,West,264,0.0,9.0,51,0.00,,,0.00,weatherlink.com 1.10,2013-07-29 17:00:00,
2013-07-29 12:15:00,71.4,51.0,30.20,West,259,2.0,9.0,49,0.00,,,0.00,weatherlink.com 1.10,2013-07-29 17:15:00,
2013-07-29 12:30:00,72.0,52.0,30.19,West,262,5.0,7.0,49,0.00,,,0.00,weatherlink.com 1.10,2013-07-29 17:30:00,
2013-07-29 12:45:00,72.2,52.0,30.19,West,261,0.0,7.0,50,0.00,,,0.00,weatherlink.com 1.10,2013-07-29 17:45:00,
2013-07-29 13:00:00,72.2,52.0,30.19,West,260,5.0,9.0,50,0.00,,,0.00,weatherlink.com 1.10,2013-07-29 18:00:00,
2013-07-29 13:15:00,73.0,53.0,30.18,West,259,0.0,7.0,50,0.00,,,0.00,weatherlink.com 1.10,2013-07-29 18:15:00,
2013-07-29 13:30:00,75.4,53.0,30.18,WSW,257,0.0,7.0,45,0.00,,,0.00,weatherlink.com 1.10,2013-07-29 18:30:00,
2013-07-29 14:00:00,74.5,53.0,30.17,West,259,0.0,9.0,48,0.00,,,0.00,weatherlink.com 1.10,2013-07-29 19:00:00,
2013-07-29 14:15:00,75.5,54.0,30.16,West,259,1.0,8.0,47,0.00,,,0.00,weatherlink.com 1.10,2013-07-29 19:15:00,
2013-07-29 14:30:00,74.1,54.0,30.16,NNW,344,0.0,6.0,50,0.00,,,0.00,weatherlink.com 1.10,2013-07-29 19:30:00,
2013-07-29 14:45:00,75.5,54.0,30.15,WNW,290,0.0,7.0,47,0.00,,,0.00,weatherlink.com 1.10,2013-07-29 19:45:00,
2013-07-29 15:00:00,77.8,55.0,30.15,WNW,290,0.0,6.0,46,0.00,,,0.00,weatherlink.com 1.10,2013-07-29 20:00:00,
2013-07-29 15:30:00,76.6,55.0,30.15,West,259,4.0,10.0,47,0.00,,,0.00,weatherlink.com 1.10,2013-07-29 20:30:00,
2013-07-29 15:45:00,77.5,55.0,30.15,SW,224,0.0,10.0,46,0.00,,,0.00,weatherlink.com 1.10,2013-07-29 20:45:00,
2013-07-29 16:15:00,77.7,58.0,30.15,SSE,156,11.0,15.0,50,0.00,,,0.00,weatherlink.com 1.10,2013-07-29 21:15:00,
2013-07-29 16:30:00,75.9,57.0,30.15,SE,134,12.0,13.0,53,0.00,,,0.00,weatherlink.com 1.10,2013-07-29 21:30:00,
2013-07-29 17:00:00,75.8,57.0,30.16,SSE,156,10.0,15.0,52,0.00,,,0.00,weatherlink.com 1.10,2013-07-29 22:00:00,
2013-07-29 17:15:00,75.1,57.0,30.16,SSW,200,9.0,14.0,54,0.00,,,0.00,weatherlink.com 1.10,2013-07-29 22:15:00,
2013-07-29 17:30:00,75.2,58.0,30.16,SW,222,9.0,14.0,55,0.00,,,0.00,weatherlink.com 1.10,2013-07-29 22:30:00,
2013-07-29 18:00:00,75.5,57.0,30.16,SSE,164,9.0,13.0,53,0.00,,,0.00,weatherlink.com 1.10,2013-07-29 23:00:00,
2013-07-29 18:45:00,75.2,57.0,30.16,SSE,157,5.0,12.0,54,0.00,,,0.00,weatherlink.com 1.10,2013-07-29 23:45:00,
2013-07-29 19:00:00,74.6,57.0,30.16,South,178,9.0,12.0,54,0.00,,,0.00,weatherlink.com 1.10,2013-07-30 00:00:00,
2013-07-29 19:15:00,75.1,57.0,30.16,SSE,163,7.0,8.0,54,0.00,,,0.00,weatherlink.com 1.10,2013-07-30 00:15:00,
2013-07-29 19:30:00,74.6,57.0,30.16,SSE,153,6.0,10.0,55,0.00,,,0.00,weatherlink.com 1.10,2013-07-30 00:30:00,
2013-07-29 19:45:00,74.1,56.0,30.16,SE,146,5.0,9.0,54,0.00,,,0.00,weatherlink.com 1.10,2013-07-30 00:45:00,
2013-07-29 20:15:00,73.2,56.0,30.16,SE,143,4.0,6.0,56,0.00,,,0.00,weatherlink.com 1.10,2013-07-30 01:15:00,
2013-07-29 20:30:00,72.8,57.0,30.16,SE,143,0.0,6.0,58,0.00,,,0.00,weatherlink.com 1.10,2013-07-30 01:30:00,
2013-07-29 20:45:00,71.7,58.0,30.16,SE,143,0.0,4.0,62,0.00,,,0.00,weatherlink.com 1.10,2013-07-30 01:45:00,
2013-07-29 21:00:00,70.3,58.0,30.17,SE,143,0.0,6.0,65,0.00,,,0.00,weatherlink.com 1.10,2013-07-30 02:00:00,
2013-07-29 21:15:00,69.6,58.0,30.17,SE,143,0.0,6.0,66,0.00,,,0.00,weatherlink.com 1.10,2013-07-30 02:15:00,
2013-07-29 21:30:00,69.2,58.0,30.17,SE,143,0.0,0.0,68,0.00,,,0.00,weatherlink.com 1.10,2013-07-30 02:30:00,
2013-07-29 21:45:00,69.1,59.0,30.18,SE,143,2.0,2.0,69,0.00,,,0.00,weatherlink.com 1.10,2013-07-30 02:45:00,
2013-07-29 22:00:00,69.0,60.0,30.18,SE,143,0.0,0.0,72,0.00,,,0.00,weatherlink.com 1.10,2013-07-30 03:00:00,
2013-07-29 22:31:00,-999.0,-99.9,30.18,North,-999,-999.0,-999.0,-999,0.00,,,0.00,weatherlink.com 1.10,2013-07-30 03:31:00,
2013-07-29 23:01:00,66.0,60.0,30.18,SE,143,0.0,0.0,81,0.00,,,0.00,weatherlink.com 1.10,2013-07-30 04:01:00,
2013-07-29 23:16:00,65.5,60.0,30.18,SE,143,0.0,0.0,82,0.00,,,0.00,weatherlink.com 1.10,2013-07-30 04:16:00,
2013-07-29 23:31:00,65.0,60.0,30.18,SE,143,0.0,0.0,84,0.00,,,0.00,weatherlink.com 1.10,2013-07-30 04:31:00,
2013-07-29 23:46:00,64.4,60.0,30.18,SE,143,0.0,6.0,85,0.00,,,0.00,weatherlink.com 1.10,2013-07-30 04:46:00,